Time,TemperatureF,DewpointF,PressureIn,WindDirection,WindDirectionDegrees,WindSpeedMPH,WindSpeedGustMPH,Humidity,HourlyPrecipIn,Conditions,Clouds,dailyrainin,SoftwareType,DateUTC
2013-06-26 00:01:00,81.0,11.0,30.05,NNE,20,1.0,3.0,7,0.00,,,0.00,,2013-06-26 06:01:00,
2013-06-26 00:11:00,80.0,10.0,30.05,North,4,0.0,2.0,7,0.00,,,0.00,,2013-06-26 06:11:00,
2013-06-26 00:34:00,78.0,12.0,30.05,North,4,0.0,0.0,8,0.00,,,0.00,,2013-06-26 06:34:00,
2013-06-26 00:43:00,78.0,15.0,30.06,North,4,0.0,0.0,9,0.00,,,0.00,,2013-06-26 06:43:00,
2013-06-26 00:53:00,77.0,18.0,30.05,North,4,0.0,0.0,11,0.00,,,0.00,,2013-06-26 06:53:00,
2013-06-26 01:01:00,76.0,22.0,30.05,North,4,0.0,0.0,13,0.00,,,0.00,,2013-06-26 07:01:00,
2013-06-26 01:11:00,75.0,19.0,30.05,North,4,0.0,0.0,12,0.00,,,0.00,,2013-06-26 07:11:00,
2013-06-26 01:33:00,73.0,23.0,30.05,North,4,0.0,0.0,15,0.00,,,0.00,,2013-06-26 07:33:00,
2013-06-26 01:43:00,72.0,25.0,30.05,SSW,203,0.0,3.0,17,0.00,,,0.00,,2013-06-26 07:43:00,
2013-06-26 01:53:00,71.0,24.0,30.05,SSW,203,0.0,0.0,17,0.00,,,0.00,,2013-06-26 07:53:00,
2013-06-26 02:01:00,71.0,25.0,30.05,SSW,203,0.0,0.0,18,0.00,,,0.00,,2013-06-26 08:01:00,
2013-06-26 02:11:00,71.0,25.0,30.05,ENE,59,0.0,4.0,18,0.00,,,0.00,,2013-06-26 08:11:00,
2013-06-26 02:22:00,71.0,25.0,30.05,ENE,59,0.0,0.0,18,0.00,,,0.00,,2013-06-26 08:22:00,
2013-06-26 02:33:00,70.0,25.0,30.05,ENE,59,0.0,0.0,18,0.00,,,0.00,,2013-06-26 08:33:00,
2013-06-26 02:42:00,69.0,26.0,30.05,South,179,0.0,2.0,20,0.00,,,0.00,,2013-06-26 08:42:00,
2013-06-26 02:52:00,69.0,26.0,30.05,South,179,0.0,0.0,20,0.00,,,0.00,,2013-06-26 08:52:00,
2013-06-26 03:01:00,68.0,27.0,30.05,South,179,0.0,0.0,21,0.00,,,0.00,,2013-06-26 09:01:00,
2013-06-26 03:32:00,66.0,29.0,30.05,South,179,0.0,3.0,25,0.00,,,0.00,,2013-06-26 09:32:00,
2013-06-26 04:43:00,65.0,24.0,30.05,SW,221,0.0,0.0,21,0.00,,,0.00,,2013-06-26 10:43:00,
2013-06-26 04:53:00,66.0,26.0,30.05,SW,221,0.0,0.0,22,0.00,,,0.00,,2013-06-26 10:53:00,
2013-06-26 05:02:00,66.0,27.0,30.06,SW,221,0.0,0.0,23,0.00,,,0.00,,2013-06-26 11:02:00,
2013-06-26 05:11:00,65.0,28.0,30.07,SW,221,0.0,0.0,25,0.00,,,0.00,,2013-06-26 11:11:00,
2013-06-26 05:22:00,64.0,27.0,30.07,SW,221,0.0,0.0,25,0.00,,,0.00,,2013-06-26 11:22:00,
2013-06-26 05:33:00,64.0,27.0,30.08,SW,221,0.0,0.0,25,0.00,,,0.00,,2013-06-26 11:33:00,
2013-06-26 05:44:00,63.0,28.0,30.08,SW,221,0.0,0.0,26,0.00,,,0.00,,2013-06-26 11:44:00,
2013-06-26 05:52:00,63.0,27.0,30.08,NNW,338,2.0,3.0,25,0.00,,,0.00,,2013-06-26 11:52:00,
2013-06-26 06:02:00,63.0,28.0,30.09,NNW,333,0.0,3.0,26,0.00,,,0.00,,2013-06-26 12:02:00,
2013-06-26 06:12:00,63.0,29.0,30.10,NNW,333,0.0,0.0,27,0.00,,,0.00,,2013-06-26 12:12:00,
2013-06-26 06:22:00,63.0,29.0,30.10,NNE,30,0.0,1.0,27,0.00,,,0.00,,2013-06-26 12:22:00,
2013-06-26 06:33:00,63.0,28.0,30.11,NNE,30,0.0,0.0,26,0.00,,,0.00,,2013-06-26 12:33:00,
2013-06-26 06:52:00,63.0,30.0,30.11,NNE,30,0.0,0.0,29,0.00,,,0.00,,2013-06-26 12:52:00,
2013-06-26 07:42:00,65.0,29.0,30.12,NNE,30,0.0,0.0,26,0.00,,,0.00,,2013-06-26 13:42:00,
2013-06-26 07:53:00,67.0,26.0,30.12,NNE,30,0.0,0.0,21,0.00,,,0.00,,2013-06-26 13:53:00,
2013-06-26 08:23:00,71.0,23.0,30.14,North,7,0.0,3.0,16,0.00,,,0.00,,2013-06-26 14:23:00,
2013-06-26 08:34:00,72.0,20.0,30.14,NNW,330,2.0,3.0,14,0.00,,,0.00,,2013-06-26 14:34:00,
2013-06-26 08:42:00,73.0,21.0,30.14,WNW,290,2.0,3.0,14,0.00,,,0.00,,2013-06-26 14:42:00,
2013-06-26 08:52:00,73.0,23.0,30.14,NNW,336,2.0,3.0,15,0.00,,,0.00,,2013-06-26 14:52:00,
2013-06-26 09:02:00,74.0,25.0,30.14,North,11,5.0,6.0,16,0.00,,,0.00,,2013-06-26 15:02:00,
2013-06-26 09:11:00,74.0,22.0,30.14,North,0,0.0,6.0,14,0.00,,,0.00,,2013-06-26 15:11:00,
2013-06-26 09:34:00,78.0,19.0,30.14,NNW,329,0.0,4.0,11,0.00,,,0.00,,2013-06-26 15:34:00,
2013-06-26 09:44:00,80.0,21.0,30.14,NNW,335,0.0,3.0,11,0.00,,,0.00,,2013-06-26 15:44:00,
2013-06-26 09:53:00,81.0,19.0,30.14,NW,305,0.0,4.0,10,0.00,,,0.00,,2013-06-26 15:53:00,
2013-06-26 10:01:00,82.0,20.0,30.15,NNW,332,1.0,4.0,10,0.00,,,0.00,,2013-06-26 16:01:00,
2013-06-26 11:11:00,90.0,10.0,30.15,NNW,338,2.0,8.0,5,0.00,,,0.00,,2013-06-26 17:11:00,
2013-06-26 16:43:00,103.0,-1.0,30.05,WSW,255,3.0,9.0,2,0.00,,,0.00,,2013-06-26 22:43:00,
2013-06-26 19:42:00,98.0,11.0,30.02,West,260,0.0,0.0,4,0.00,,,0.00,,2013-06-27 01:42:00,
2013-06-26 19:52:00,98.0,11.0,30.02,West,260,0.0,0.0,4,0.00,,,0.00,,2013-06-27 01:52:00,
2013-06-26 20:01:00,98.0,11.0,30.02,West,259,0.0,2.0,4,0.00,,,0.00,,2013-06-27 02:01:00,
2013-06-26 20:11:00,97.0,10.0,30.02,WSW,253,1.0,2.0,4,0.00,,,0.00,,2013-06-27 02:11:00,
2013-06-26 20:22:00,97.0,10.0,30.02,West,277,0.0,2.0,4,0.00,,,0.00,,2013-06-27 02:22:00,
2013-06-26 20:32:00,96.0,14.0,30.02,SW,225,1.0,3.0,5,0.00,,,0.00,,2013-06-27 02:32:00,
2013-06-26 22:01:00,87.0,16.0,30.05,WNW,283,1.0,4.0,7,0.00,,,0.00,,2013-06-27 04:01:00,
2013-06-26 22:11:00,87.0,16.0,30.05,West,267,1.0,4.0,7,0.00,,,0.00,,2013-06-27 04:11:00,
2013-06-26 22:32:00,87.0,16.0,30.06,West,262,0.0,3.0,7,0.00,,,0.00,,2013-06-27 04:32:00,
2013-06-26 23:21:00,84.0,13.0,30.08,NE,52,1.0,3.0,7,0.00,,,0.00,,2013-06-27 05:21:00,
2013-06-26 23:32:00,82.0,15.0,30.08,South,173,0.0,2.0,8,0.00,,,0.00,,2013-06-27 05:32:00,
2013-06-26 23:42:00,82.0,12.0,30.09,South,173,0.0,0.0,7,0.00,,,0.00,,2013-06-27 05:42:00,
2013-06-26 23:53:00,82.0,12.0,30.09,South,173,0.0,0.0,7,0.00,,,0.00,,2013-06-27 05:53:00,